{"data":{"norad_id":63219,"intl_designator":"2025-052K","name":"TEVEL2-2","alt_names":[],"object_type":"PAYLOAD","status":"ACTIVE","operator":null,"country":"ISRA","launch_date":"2025-03-15","launch_site_code":"AFWTR","launch_vehicle":null,"mission":null,"orbit_class":"UNKNOWN","rcs_meters":null,"size_class":null,"mass_kg":null,"dimensions":null,"purposes":["comms"],"wikipedia_slug":null,"has_3d_model":false,"image_url":null,"decayed_at":null,"tle_current":{"epoch":"2026-05-24T16:29:59.613792Z","epoch_age_seconds":112793,"freshness":"FRESH","line1":"1 63219U 25052K   26144.68749553  .00014418  00000+0  45480-3 0  9990","line2":"2 63219  97.3903  40.6449 0002628 158.7421 201.3931 15.32970600 66494","mean_motion":15.329706,"eccentricity":0.0002628,"inclination_deg":97.3903,"raan_deg":40.6449,"arg_perigee_deg":158.7421,"mean_anomaly_deg":201.3931,"bstar":0.0004548,"rev_number":6649,"period_min":93.935265294716,"perigee_km":465.15612891684,"apogee_km":468.75390928208,"semimajor_km":6845.0920190995,"source":"CELESTRAK","updated_at":"2026-05-25T13:38:23.297778Z"}}}